period_start,C,m1,H,J0,J1,J2,J3,J4,J5,JA,JB,JC,JD,JJ,JK,JN,#
2014-03-20 00:00:05,0.07,2.79,0.00,23.80,29.22,31.77,5.96,32.29,1010.78,2031.99,2458.79,2584.01,2806.34,349.83,321.09,13.62,0000 0000 0000 0000 000000
2014-03-20 00:01:05,0.15,2.79,0.00,23.80,29.22,31.79,6.02,32.25,1010.77,2031.99,2458.33,2583.92,2806.12,350.60,321.73,13.62,0000 0000 0000 0000 000000
2014-03-20 00:02:05,0.16,2.79,0.00,23.80,29.22,31.81,6.09,32.29,1010.78,2031.99,2458.11,2583.66,2806.04,350.57,321.89,13.63,0000 0000 0000 0000 000000
2014-03-20 00:03:05,0.12,2.79,0.00,23.80,29.21,31.81,6.02,32.25,1010.77,2031.99,2458.04,2583.34,2806.01,349.24,320.55,13.63,0000 0000 0000 0000 000000
2014-03-20 00:04:05,0.12,2.79,0.00,23.80,29.20,31.82,5.97,32.29,1010.77,2031.99,2457.84,2583.14,2805.88,350.36,321.31,13.64,0000 0000 0000 0000 000000
2014-03-20 00:05:06,0.14,2.79,0.00,23.80,29.20,31.81,5.92,32.38,1010.76,2031.99,2457.38,2583.05,2805.51,349.54,320.82,13.65,0000 0000 0000 0000 000000
2014-03-20 00:06:06,0.19,2.79,0.00,23.79,29.20,31.78,6.15,32.67,1010.76,2031.99,2457.14,2583.01,2805.19,350.31,321.52,13.65,0000 0000 0000 0000 000000
2014-03-20 00:07:06,0.10,2.79,0.00,23.79,29.20,31.85,5.94,32.38,1010.76,2031.99,2457.05,2582.97,2805.07,349.27,320.15,13.66,0000 0000 0000 0000 000000
2014-03-20 00:08:06,0.04,2.79,0.00,23.79,29.20,31.83,6.05,32.54,1010.76,2031.99,2456.82,2582.84,2805.02,350.15,322.19,13.66,0000 0000 0000 0000 000000
2014-03-20 00:09:07,0.11,2.79,0.00,23.79,29.19,31.84,6.11,32.38,1010.76,2031.99,2456.36,2582.55,2804.99,349.83,320.85,13.67,0000 0000 0000 0000 000000
2014-03-20 00:10:07,0.18,2.79,0.00,23.79,29.18,31.85,6.03,32.67,1010.73,2031.99,2456.13,2582.29,2804.84,349.74,320.99,13.67,0000 0000 0000 0000 000000
2014-03-20 00:11:07,0.14,2.79,0.00,23.78,29.17,31.85,5.93,32.29,1010.68,2031.99,2456.01,2582.11,2804.43,349.28,320.57,13.68,0000 0000 0000 0000 000000
2014-03-20 00:12:07,0.16,2.80,0.00,23.77,29.17,31.92,5.85,32.50,1010.56,2031.99,2455.69,2582.04,2804.16,348.83,320.13,13.69,0000 0000 0000 0000 000000
2014-03-20 00:13:07,0.15,2.80,0.00,23.77,29.17,31.88,6.00,32.50,1010.49,2031.99,2455.28,2582.00,2804.06,350.13,321.30,13.69,0000 0000 0000 0000 000000
2014-03-20 00:14:08,0.10,2.80,0.00,23.77,29.17,31.90,6.08,32.71,1010.45,2031.99,2455.09,2581.97,2804.01,350.67,321.78,13.70,0000 0000 0000 0000 000000
2014-03-20 00:15:08,0.04,2.80,0.00,23.77,29.16,31.90,5.85,32.54,1010.46,2031.99,2454.88,2581.77,2803.92,349.23,320.47,13.70,0000 0000 0000 0000 000000
2014-03-20 00:16:08,0.14,2.80,0.00,23.76,29.15,31.85,6.03,32.58,1010.59,2031.99,2454.46,2581.40,2803.57,350.75,322.07,13.71,0000 0000 0000 0000 000000
2014-03-20 00:17:09,0.29,2.80,0.00,23.77,29.15,31.80,6.04,32.33,1010.62,2031.99,2454.16,2581.16,2803.25,351.41,322.52,13.72,0000 0000 0000 0000 000000
2014-03-20 00:18:09,0.17,2.80,0.00,23.76,29.15,31.80,6.07,32.58,1010.68,2032.00,2454.05,2581.06,2803.09,350.64,321.84,13.72,0000 0000 0000 0000 000000
2014-03-20 00:19:09,0.08,2.80,0.00,23.75,29.15,31.80,5.92,32.50,1010.70,2032.01,2453.98,2581.02,2803.03,349.78,320.82,13.73,0000 0000 0000 0000 000000
2014-03-20 00:20:09,0.03,2.80,0.00,23.75,29.15,31.79,6.10,32.29,1010.76,2032.01,2453.61,2581.00,2803.00,350.62,321.85,13.73,0000 0000 0000 0000 000000
2014-03-20 00:21:09,0.11,2.80,0.00,23.75,29.14,31.77,6.02,32.50,1010.76,2032.00,2453.22,2580.91,2802.85,349.45,320.79,13.74,0000 0000 0000 0000 000000
2014-03-20 00:22:10,0.10,2.80,0.00,23.75,29.13,31.76,5.87,32.42,1010.76,2032.01,2453.08,2580.67,2802.45,349.60,321.48,13.74,0000 0000 0000 0000 000000
2014-03-20 00:23:10,0.19,2.80,0.00,23.74,29.12,31.78,6.08,32.42,1010.76,2032.01,2453.01,2580.38,2802.20,350.41,321.67,13.75,0000 0000 0000 0000 000000
2014-03-20 00:24:10,0.15,2.80,0.00,23.74,29.12,31.76,5.93,32.46,1010.76,2032.03,2452.86,2580.15,2802.07,350.11,321.39,13.76,0000 0000 0000 0000 000000
2014-03-20 00:25:10,0.14,2.81,0.00,23.74,29.12,31.72,6.08,32.46,1010.76,2032.03,2452.44,2580.05,2802.02,350.76,322.10,13.76,0000 0000 0000 0000 000000
2014-03-20 00:26:11,0.12,2.81,0.00,23.75,29.12,31.78,6.10,32.54,1010.76,2032.02,2452.16,2580.02,2801.95,349.89,321.26,13.77,0000 0000 0000 0000 000000
2014-03-20 00:27:11,0.06,2.81,0.00,23.75,29.12,31.83,5.91,32.63,1010.76,2032.01,2452.00,2579.97,2801.62,350.16,321.34,13.77,0000 0000 0000 0000 000000
2014-03-20 00:28:11,0.12,2.81,0.00,23.75,29.11,31.77,6.08,32.63,1010.76,2032.01,2451.86,2579.84,2801.27,350.51,321.97,13.78,0000 0000 0000 0000 000000
2014-03-20 00:29:12,0.12,2.81,0.00,23.75,29.10,31.85,5.99,32.67,1010.78,2032.07,2451.46,2579.59,2801.11,349.62,320.89,13.79,0000 0000 0000 0000 000000
2014-03-20 00:30:12,0.25,2.81,0.00,23.75,29.10,31.85,5.97,32.50,1010.76,2032.09,2451.16,2579.26,2801.04,350.00,321.28,13.79,0000 0000 0000 0000 000000
2014-03-20 00:31:12,0.17,2.81,0.00,23.75,29.10,31.82,6.17,32.67,1010.76,2032.06,2451.02,2579.09,2800.99,351.61,322.76,13.80,0000 0000 0000 0000 000000
2014-03-20 00:32:12,0.05,2.81,0.00,23.75,29.10,31.86,5.90,32.58,1010.76,2032.03,2450.69,2579.03,2800.80,349.05,320.41,13.80,0000 0000 0000 0000 000000
2014-03-20 00:33:13,0.12,2.81,0.00,23.75,29.10,31.81,5.93,32.38,1010.76,2032.05,2450.32,2578.98,2800.43,349.50,320.83,13.81,0000 0000 0000 0000 000000
2014-03-20 00:34:13,0.14,2.81,0.00,23.75,29.10,31.79,5.84,32.50,1010.76,2032.06,2450.13,2578.94,2800.19,349.41,320.75,13.81,0000 0000 0000 0000 000000
2014-03-20 00:35:13,0.11,2.81,0.00,23.73,29.09,31.84,6.11,32.63,1010.76,2032.09,2450.05,2578.82,2800.07,351.23,322.40,13.82,0000 0000 0000 0000 000000
2014-03-20 00:36:14,0.14,2.81,0.00,23.72,29.08,31.80,6.16,32.67,1010.76,2032.08,2449.84,2578.44,2800.03,349.68,320.93,13.83,0000 0000 0000 0000 000000
2014-03-20 00:37:14,0.16,2.82,0.00,23.72,29.07,31.84,5.98,32.71,1010.75,2032.08,2449.42,2578.16,2799.99,349.90,321.23,13.83,0000 0000 0000 0000 000000
2014-03-20 00:38:14,0.16,2.82,0.00,23.72,29.07,31.82,5.86,32.42,1010.76,2032.09,2449.18,2578.06,2799.83,348.81,320.50,13.84,0000 0000 0000 0000 000000
2014-03-20 00:39:14,0.11,2.82,0.00,23.72,29.07,31.84,6.02,32.71,1010.76,2032.09,2449.07,2578.01,2799.40,350.21,321.51,13.84,0000 0000 0000 0000 000000
2014-03-20 00:40:15,0.11,2.82,0.00,23.72,29.07,31.83,5.95,32.63,1010.76,2032.11,2448.99,2577.99,2799.17,349.29,320.86,13.85,0000 0000 0000 0000 000000
2014-03-20 00:41:15,0.10,2.82,0.00,23.74,29.07,31.79,6.09,32.38,1010.76,2032.14,2448.59,2577.94,2799.06,350.04,321.01,13.86,0000 0000 0000 0000 000000
2014-03-20 00:42:15,0.14,2.82,0.00,23.75,29.07,31.82,5.96,32.58,1010.76,2032.22,2448.23,2577.59,2799.02,349.65,321.45,13.86,0000 0000 0000 0000 000000
2014-03-20 00:43:15,0.27,2.82,0.00,23.75,29.06,31.85,6.09,32.79,1010.77,2032.34,2448.08,2577.28,2798.94,350.26,321.93,13.87,0000 0000 0000 0000 000000
2014-03-20 00:44:16,0.25,2.82,0.00,23.75,29.05,31.84,5.96,32.67,1010.76,2032.49,2448.00,2577.10,2798.65,349.91,321.08,13.87,0000 0000 0000 0000 000000
2014-03-20 00:45:16,0.24,2.82,0.00,23.75,29.05,31.84,5.88,32.46,1010.76,2032.61,2447.73,2577.03,2798.30,348.88,320.26,13.88,0000 0000 0000 0000 000000
2014-03-20 00:46:16,0.24,2.82,0.00,23.75,29.05,31.86,6.03,33.08,1010.76,2032.78,2447.36,2577.01,2798.12,350.19,321.08,13.89,0000 0000 0000 0000 000000
2014-03-20 00:47:16,0.25,2.83,0.00,23.75,29.05,31.84,5.98,32.71,1010.76,2032.77,2447.14,2576.97,2798.04,350.09,321.31,13.89,0000 0000 0000 0000 000000
2014-03-20 00:48:16,0.05,2.83,0.00,23.75,29.05,31.84,5.96,32.79,1010.77,2032.74,2447.01,2576.84,2797.99,349.29,320.87,13.90,0000 0000 0000 0000 000000
2014-03-20 00:49:16,0.07,2.83,0.00,23.75,29.05,31.83,6.02,32.50,1010.77,2032.68,2446.69,2576.43,2797.86,350.54,321.49,13.90,0000 0000 0000 0000 000000
2014-03-20 00:50:17,0.19,2.83,0.00,23.74,29.05,31.82,6.02,32.58,1010.77,2032.74,2446.31,2576.18,2797.42,349.79,321.11,13.91,0000 0000 0000 0000 000000
2014-03-20 00:51:17,0.24,2.83,0.00,23.74,29.04,31.79,6.01,32.71,1010.76,2032.74,2446.11,2576.07,2797.16,349.38,320.73,13.91,0000 0000 0000 0000 000000
2014-03-20 00:52:17,0.13,2.83,0.00,23.73,29.03,31.83,6.13,32.54,1010.80,2032.76,2446.01,2576.02,2797.05,351.00,322.24,13.92,0000 0000 0000 0000 000000
2014-03-20 00:53:17,0.08,2.83,0.00,23.74,29.02,31.83,5.95,32.75,1010.78,2032.85,2445.93,2576.00,2797.02,349.02,320.41,13.93,0000 0000 0000 0000 000000
2014-03-20 00:54:18,0.13,2.83,0.00,23.74,29.02,31.77,6.04,32.54,1010.77,2032.90,2445.51,2575.94,2796.98,350.14,321.42,13.93,0000 0000 0000 0000 000000
2014-03-20 00:55:18,0.16,2.83,0.00,23.75,29.02,31.79,5.82,32.54,1010.79,2032.93,2445.19,2575.66,2796.71,349.39,320.74,13.94,0000 0000 0000 0000 000000
2014-03-20 00:56:18,0.21,2.83,0.00,23.75,29.02,31.77,5.92,32.54,1010.77,2032.96,2445.06,2575.35,2796.37,350.08,321.37,13.94,0000 0000 0000 0000 000000
2014-03-20 00:57:19,0.22,2.84,0.00,23.75,29.02,31.80,6.05,32.71,1010.77,2032.97,2444.99,2575.13,2796.16,349.74,321.28,13.95,0000 0000 0000 0000 000000
2014-03-20 00:58:19,0.13,2.84,0.00,23.75,29.02,31.81,6.00,32.46,1010.77,2032.96,2444.66,2575.05,2796.05,350.46,321.59,13.96,0000 0000 0000 0000 000000
2014-03-20 00:59:19,0.08,2.84,0.00,23.74,29.02,31.79,5.99,32.67,1010.78,2032.98,2444.25,2575.01,2796.01,350.65,321.90,13.96,0000 0000 0000 0000 000000
2014-03-20 01:00:19,0.13,2.84,0.00,23.74,29.02,31.78,6.03,32.63,1010.77,2032.98,2444.08,2574.97,2795.89,349.92,320.86,13.97,0000 0000 0000 0000 000000
2014-03-20 01:01:20,0.07,2.84,0.00,23.74,29.00,31.78,6.05,32.58,1010.76,2032.99,2443.99,2574.78,2795.53,350.50,321.53,13.97,0000 0000 0000 0000 000000
2014-03-20 01:02:20,0.15,2.84,0.00,23.73,29.00,31.78,6.03,32.50,1010.76,2032.98,2443.81,2574.53,2795.24,350.59,321.85,13.98,0000 0000 0000 0000 000000
2014-03-20 01:03:20,0.14,2.84,0.00,23.72,29.00,31.81,6.00,32.63,1010.76,2032.91,2443.35,2574.22,2795.08,349.96,320.88,13.98,0000 0000 0000 0000 000000
2014-03-20 01:04:21,0.16,2.84,0.00,23.73,29.00,31.78,6.07,32.79,1010.76,2032.95,2443.12,2574.08,2795.00,349.98,321.53,13.99,0000 0000 0000 0000 000000
2014-03-20 01:05:21,0.16,2.84,0.00,23.72,29.00,31.81,6.01,32.75,1010.76,2032.98,2442.85,2574.01,2794.76,349.87,321.03,14.00,0000 0000 0000 0000 000000
2014-03-20 01:06:21,0.16,2.84,0.00,23.73,29.00,31.80,6.10,32.54,1010.76,2032.99,2442.44,2573.90,2794.40,349.53,321.44,14.00,0000 0000 0000 0000 000000
2014-03-20 01:07:22,0.18,2.84,0.00,23.74,29.00,31.81,5.92,32.58,1010.76,2032.98,2442.15,2573.70,2794.18,349.95,321.24,14.01,0000 0000 0000 0000 000000
2014-03-20 01:08:22,0.16,2.84,0.00,23.75,29.00,31.81,6.03,32.42,1010.79,2032.98,2442.05,2573.36,2794.07,349.80,321.12,14.01,0000 0000 0000 0000 000000
2014-03-20 01:09:22,0.14,2.85,0.00,23.75,29.00,31.77,6.08,32.75,1010.76,2032.99,2441.89,2573.13,2794.00,350.30,321.57,14.02,0000 0000 0000 0000 000000
2014-03-20 01:10:22,0.12,2.85,0.00,23.75,28.99,31.71,5.97,32.50,1010.89,2032.99,2441.46,2573.05,2793.98,350.39,321.69,14.03,0000 0000 0000 0000 000000
2014-03-20 01:11:23,0.13,2.85,0.00,23.75,28.98,31.78,6.03,32.46,1011.00,2032.96,2441.18,2572.99,2793.60,350.67,321.99,14.03,0000 0000 0000 0000 000000
2014-03-20 01:12:23,0.11,2.85,0.00,23.74,28.98,31.79,5.97,32.38,1011.11,2032.98,2441.06,2572.96,2793.27,349.85,321.26,14.04,0000 0000 0000 0000 000000
2014-03-20 01:13:23,0.09,2.85,0.00,23.74,28.97,31.72,5.93,32.71,1011.10,2032.98,2441.00,2572.86,2793.11,349.54,320.98,14.04,0000 0000 0000 0000 000000
2014-03-20 01:14:24,0.10,2.85,0.00,23.74,28.97,31.72,5.87,32.67,1011.11,2032.96,2440.69,2572.44,2793.03,349.58,321.41,14.05,0000 0000 0000 0000 000000
2014-03-20 01:15:24,0.19,2.85,0.00,23.74,28.97,31.79,5.81,32.58,1011.19,2032.98,2440.29,2572.17,2792.95,349.01,320.62,14.05,0000 0000 0000 0000 000000
2014-03-20 01:16:24,0.17,2.85,0.00,23.74,28.97,31.78,5.84,32.58,1011.21,2032.98,2440.10,2572.06,2792.83,348.93,320.45,14.06,0000 0000 0000 0000 000000
2014-03-20 01:17:24,0.11,2.85,0.00,23.73,28.97,31.77,5.97,32.67,1011.22,2032.97,2439.83,2572.02,2792.40,349.42,320.92,14.07,0000 0000 0000 0000 000000
2014-03-20 01:18:25,0.13,2.85,0.00,23.73,28.97,31.77,6.18,32.67,1011.24,2032.98,2439.43,2571.98,2792.15,350.79,321.78,14.07,0000 0000 0000 0000 000000
2014-03-20 01:19:25,0.15,2.85,0.00,23.74,28.97,31.77,6.02,32.63,1011.23,2032.98,2439.16,2571.72,2792.05,349.68,320.92,14.08,0000 0000 0000 0000 000000
2014-03-20 01:20:25,0.15,2.85,0.00,23.74,28.96,31.75,5.94,32.29,1011.19,2032.97,2439.05,2571.31,2791.97,349.67,320.66,14.08,0000 0000 0000 0000 000000
2014-03-20 01:21:26,0.16,2.85,0.00,23.75,28.95,31.78,6.03,32.71,1011.21,2032.97,2438.82,2571.11,2791.70,350.67,322.04,14.09,0000 0000 0000 0000 000000
2014-03-20 01:22:26,0.17,2.86,0.00,23.75,28.95,31.75,6.06,32.58,1011.18,2032.98,2438.38,2571.03,2791.29,350.09,321.51,14.10,0000 0000 0000 0000 000000
2014-03-20 01:23:26,0.17,2.86,0.00,23.75,28.95,31.78,5.88,32.46,1011.24,2032.98,2438.14,2570.99,2791.11,349.04,320.81,14.10,0000 0000 0000 0000 000000
2014-03-20 01:24:26,0.09,2.86,0.00,23.75,28.95,31.73,5.96,32.50,1011.24,2032.99,2438.05,2570.97,2791.04,349.82,321.00,14.11,0000 0000 0000 0000 000000
2014-03-20 01:25:27,0.05,2.86,0.00,23.75,28.95,31.75,5.86,32.50,1011.24,2032.98,2437.95,2570.77,2791.00,350.58,322.29,14.11,0000 0000 0000 0000 000000
2014-03-20 01:26:27,0.11,2.86,0.00,23.75,28.95,31.75,5.90,32.38,1011.24,2032.99,2437.56,2570.38,2790.89,349.86,321.31,14.12,0000 0000 0000 0000 000000
2014-03-20 01:27:27,0.21,2.86,0.00,23.75,28.95,31.76,6.14,32.83,1011.24,2032.99,2437.21,2570.15,2790.50,350.23,321.65,14.13,0000 0000 0000 0000 000000
2014-03-20 01:28:27,0.20,2.86,0.00,23.75,28.95,31.73,5.97,33.00,1011.24,2032.99,2437.06,2570.05,2790.20,349.55,321.22,14.13,0000 0000 0000 0000 000000
2014-03-20 01:29:28,0.11,2.86,0.00,23.73,28.95,31.73,6.13,32.79,1011.24,2032.99,2436.87,2570.00,2790.07,350.49,321.91,14.14,0000 0000 0000 0000 000000
2014-03-20 01:30:28,0.10,2.86,0.00,23.72,28.94,31.75,6.01,32.71,1011.24,2032.99,2436.41,2569.78,2789.97,349.77,321.26,14.14,0000 0000 0000 0000 000000
2014-03-20 01:31:28,0.18,2.86,0.00,23.71,28.93,31.77,5.99,32.63,1011.24,2032.98,2436.14,2569.42,2789.60,349.87,321.69,14.15,0000 0000 0000 0000 000000
2014-03-20 01:32:29,0.21,2.86,0.00,23.70,28.93,31.72,6.01,32.79,1011.24,2032.99,2435.93,2569.16,2789.25,350.01,321.33,14.15,0000 0000 0000 0000 000000
2014-03-20 01:33:29,0.19,2.87,0.00,23.70,28.92,31.68,6.12,32.75,1011.24,2032.99,2435.57,2569.05,2789.09,351.01,322.36,14.16,0000 0000 0000 0000 000000
2014-03-20 01:34:29,0.13,2.87,0.00,23.70,28.92,31.75,6.09,32.58,1011.24,2032.99,2435.22,2569.02,2789.03,350.00,321.76,14.17,0000 0000 0000 0000 000000
2014-03-20 01:35:29,0.10,2.87,0.00,23.70,28.92,31.77,5.92,32.71,1011.24,2032.99,2435.08,2568.99,2789.00,350.41,321.87,14.17,0000 0000 0000 0000 000000
2014-03-20 01:36:30,0.04,2.87,0.00,23.70,28.92,31.76,6.15,32.83,1011.24,2032.99,2435.03,2568.86,2788.91,350.08,321.87,14.18,0000 0000 0000 0000 000000
2014-03-20 01:37:30,0.09,2.87,0.00,23.70,28.92,31.77,5.99,32.67,1011.24,2032.99,2434.72,2568.42,2788.53,349.51,321.05,14.18,0000 0000 0000 0000 000000
2014-03-20 01:38:30,0.24,2.87,0.00,23.71,28.92,31.76,6.13,32.92,1011.24,2032.99,2434.29,2568.16,2788.21,350.77,322.19,14.19,0000 0000 0000 0000 000000
2014-03-20 01:39:30,0.23,2.87,0.00,23.72,28.92,31.76,6.07,32.75,1011.24,2032.99,2434.10,2568.05,2788.08,350.63,322.03,14.20,0000 0000 0000 0000 000000
2014-03-20 01:40:31,0.09,2.87,0.00,23.72,28.92,31.76,5.95,32.63,1011.24,2032.99,2433.99,2568.01,2788.01,349.18,321.11,14.20,0000 0000 0000 0000 000000
2014-03-20 01:41:31,0.06,2.87,0.00,23.71,28.92,31.72,6.08,32.63,1011.24,2032.99,2433.62,2567.96,2787.87,350.17,321.93,14.21,0000 0000 0000 0000 000000
2014-03-20 01:42:31,0.11,2.87,0.00,23.70,28.92,31.75,6.08,32.58,1011.24,2032.99,2433.23,2567.80,2787.52,350.74,322.24,14.21,0000 0000 0000 0000 000000
2014-03-20 01:43:32,0.20,2.87,0.00,23.70,28.91,31.74,6.04,32.54,1011.24,2032.99,2433.08,2567.45,2787.22,350.69,322.29,14.22,0000 0000 0000 0000 000000
2014-03-20 01:44:32,0.18,2.87,0.00,23.68,28.90,31.70,5.92,32.58,1011.24,2032.99,2432.99,2567.16,2787.08,349.74,321.28,14.22,0000 0000 0000 0000 000000
2014-03-20 01:45:32,0.13,2.88,0.00,23.67,28.90,31.73,6.13,32.71,1011.24,2032.99,2432.67,2567.05,2787.02,350.65,322.12,14.23,0000 0000 0000 0000 000000
2014-03-20 01:46:32,0.11,2.88,0.00,23.67,28.90,31.72,5.90,32.67,1011.24,2032.99,2432.30,2567.02,2786.98,349.29,320.88,14.24,0000 0000 0000 0000 000000
2014-03-20 01:47:33,0.10,2.88,0.00,23.67,28.90,31.76,5.83,32.75,1011.24,2032.99,2432.11,2566.98,2786.75,350.19,321.70,14.24,0000 0000 0000 0000 000000
2014-03-20 01:48:33,0.12,2.88,0.00,23.67,28.90,31.73,5.98,33.00,1011.25,2032.99,2432.00,2566.71,2786.31,350.25,321.76,14.25,0000 0000 0000 0000 000000
2014-03-20 01:49:33,0.19,2.88,0.00,23.67,28.90,31.73,5.92,32.50,1011.26,2032.99,2431.66,2566.32,2786.11,349.65,321.35,14.25,0000 0000 0000 0000 000000
2014-03-20 01:50:33,0.20,2.88,0.00,23.67,28.90,31.74,5.96,32.50,1011.25,2032.99,2431.27,2566.13,2786.03,349.46,321.04,14.26,0000 0000 0000 0000 000000
2014-03-20 01:51:34,0.14,2.88,0.00,23.67,28.90,31.73,6.01,32.79,1011.25,2032.99,2431.10,2566.04,2785.96,350.33,321.37,14.27,0000 0000 0000 0000 000000
2014-03-20 01:52:34,0.09,2.88,0.00,23.67,28.90,31.74,6.03,32.67,1011.25,2033.00,2431.02,2565.99,2785.60,350.65,322.16,14.27,0000 0000 0000 0000 000000
2014-03-20 01:53:34,0.08,2.88,0.00,23.67,28.90,31.74,6.00,32.58,1011.26,2033.00,2430.85,2565.96,2785.31,349.65,321.44,14.28,0000 0000 0000 0000 000000
2014-03-20 01:54:34,0.14,2.88,0.00,23.66,28.90,31.71,6.03,32.25,1011.27,2033.00,2430.39,2565.62,2785.12,349.86,321.43,14.28,0000 0000 0000 0000 000000
2014-03-20 01:55:35,0.20,2.88,0.00,23.65,28.89,31.71,6.11,32.79,1011.26,2033.00,2430.15,2565.34,2785.04,349.61,321.38,14.29,0000 0000 0000 0000 000000
2014-03-20 01:56:35,0.14,2.89,0.00,23.65,28.88,31.69,5.95,32.58,1011.25,2033.00,2430.04,2565.13,2785.00,349.25,320.86,14.30,0000 0000 0000 0000 000000
2014-03-20 01:57:35,0.09,2.89,0.00,23.65,28.87,31.70,5.98,32.67,1011.27,2033.00,2429.91,2565.05,2784.86,349.79,321.55,14.30,0000 0000 0000 0000 000000
2014-03-20 01:58:35,0.11,2.89,0.00,23.65,28.87,31.67,5.94,32.58,1011.32,2033.01,2429.47,2565.01,2784.47,349.66,320.88,14.31,0000 0000 0000 0000 000000
2014-03-20 01:59:36,0.16,2.89,0.00,23.65,28.87,31.69,6.07,32.71,1011.28,2033.02,2429.19,2564.97,2784.17,350.53,322.19,14.31,0000 0000 0000 0000 000000
2014-03-20 02:00:36,0.13,2.89,0.00,23.65,28.87,31.70,5.80,32.71,1011.30,2033.00,2429.07,2564.80,2784.06,349.34,320.97,14.32,0000 0000 0000 0000 000000
2014-03-20 02:01:36,0.11,2.89,0.00,23.64,28.87,31.71,5.88,32.50,1011.28,2033.00,2428.79,2564.41,2784.01,349.71,321.07,14.32,0000 0000 0000 0000 000000
2014-03-20 02:02:36,0.18,2.89,0.00,23.63,28.87,31.65,5.99,32.67,1011.28,2033.00,2428.35,2564.15,2783.94,350.20,320.90,14.33,0000 0000 0000 0000 000000
2014-03-20 02:03:37,0.18,2.89,0.00,23.64,28.87,31.63,5.95,32.88,1011.33,2033.01,2428.13,2564.05,2783.71,349.61,321.23,14.34,0000 0000 0000 0000 000000
2014-03-20 02:04:37,0.11,2.89,0.00,23.64,28.87,31.67,6.02,32.71,1011.31,2033.00,2428.04,2564.02,2783.39,350.60,322.12,14.34,0000 0000 0000 0000 000000
2014-03-20 02:05:37,0.09,2.89,0.00,23.65,28.87,31.72,6.04,32.83,1011.30,2033.03,2427.86,2563.95,2783.15,350.30,321.84,14.35,0000 0000 0000 0000 000000
2014-03-20 02:06:38,0.15,2.89,0.00,23.65,28.87,31.69,5.97,32.38,1011.28,2033.03,2427.38,2563.64,2783.05,349.22,320.88,14.35,0000 0000 0000 0000 000000
2014-03-20 02:07:38,0.20,2.89,0.00,23.66,28.86,31.71,6.06,32.83,1011.28,2033.02,2427.13,2563.28,2782.95,350.40,321.92,14.36,0000 0000 0000 0000 000000
2014-03-20 02:08:38,0.18,2.90,0.00,23.66,28.85,31.68,6.08,32.79,1011.26,2033.02,2427.04,2563.10,2782.59,350.06,321.60,14.37,0000 0000 0000 0000 000000
2014-03-20 02:09:38,0.13,2.90,0.00,23.65,28.85,31.68,5.92,32.88,1011.26,2033.01,2426.76,2563.03,2782.24,349.89,321.46,14.37,0000 0000 0000 0000 000000
2014-03-20 02:10:39,0.14,2.90,0.00,23.65,28.85,31.71,6.24,32.88,1011.26,2033.01,2426.31,2562.96,2782.08,350.97,322.41,14.38,0000 0000 0000 0000 000000
2014-03-20 02:11:39,0.12,2.90,0.00,23.64,28.85,31.68,5.92,32.50,1011.26,2033.00,2426.10,2562.78,2782.00,349.73,321.32,14.38,0000 0000 0000 0000 000000
2014-03-20 02:12:39,0.16,2.90,0.00,23.62,28.85,31.67,6.20,32.92,1011.25,2033.00,2425.68,2562.35,2781.66,350.41,321.96,14.39,0000 0000 0000 0000 000000
2014-03-20 02:13:40,0.25,2.90,0.00,23.62,28.85,31.68,5.97,32.96,1011.28,2033.00,2425.29,2562.14,2781.29,349.60,321.59,14.39,0000 0000 0000 0000 000000
2014-03-20 02:14:40,0.20,2.90,0.00,23.60,28.85,31.71,5.93,33.00,1011.33,2033.00,2425.09,2562.05,2781.11,349.89,321.53,14.40,0000 0000 0000 0000 000000
2014-03-20 02:15:40,0.11,2.90,0.00,23.60,28.85,31.69,5.99,32.71,1011.51,2033.02,2424.93,2562.00,2781.03,350.28,321.94,14.41,0000 0000 0000 0000 000000
2014-03-20 02:16:41,0.10,2.90,0.00,23.60,28.85,31.67,5.92,32.67,1011.58,2033.03,2424.57,2561.93,2780.96,349.32,321.08,14.41,0000 0000 0000 0000 000000
2014-03-20 02:17:41,0.15,2.90,0.00,23.60,28.85,31.66,6.05,32.54,1011.61,2033.04,2424.23,2561.60,2780.65,350.12,321.48,14.42,0000 0000 0000 0000 000000
2014-03-20 02:18:41,0.23,2.90,0.00,23.60,28.84,31.68,5.99,32.67,1011.69,2033.07,2424.08,2561.24,2780.28,350.36,321.60,14.42,0000 0000 0000 0000 000000
2014-03-20 02:19:42,0.20,2.91,0.00,23.61,28.83,31.63,5.93,32.63,1011.72,2033.05,2423.99,2561.09,2780.10,350.17,321.74,14.43,0000 0000 0000 0000 000000
2014-03-20 02:20:42,0.09,2.91,0.00,23.61,28.82,31.64,6.21,32.75,1011.72,2033.06,2423.82,2561.03,2780.04,349.82,321.57,14.44,0000 0000 0000 0000 000000
2014-03-20 02:21:42,0.07,2.91,0.00,23.62,28.82,31.65,6.05,32.71,1011.72,2033.02,2423.39,2561.01,2780.01,349.64,321.41,14.44,0000 0000 0000 0000 000000
2014-03-20 02:22:42,0.07,2.91,0.00,23.62,28.82,31.69,6.08,32.67,1011.73,2033.04,2423.14,2560.90,2779.83,349.72,321.48,14.45,0000 0000 0000 0000 000000
2014-03-20 02:23:43,0.15,2.91,0.00,23.62,28.82,31.66,6.05,32.71,1011.73,2033.04,2423.00,2560.52,2779.40,350.04,321.77,14.45,0000 0000 0000 0000 000000
2014-03-20 02:24:43,0.24,2.91,0.00,23.62,28.82,31.66,6.13,32.75,1011.73,2033.07,2422.64,2560.23,2779.15,350.13,321.86,14.46,0000 0000 0000 0000 000000
2014-03-20 02:25:43,0.22,2.91,0.00,23.60,28.82,31.65,5.93,32.79,1011.73,2033.08,2422.26,2560.09,2779.05,349.71,321.49,14.47,0000 0000 0000 0000 000000
2014-03-20 02:26:43,0.13,2.91,0.00,23.59,28.82,31.63,5.98,32.63,1011.75,2033.07,2422.08,2560.03,2779.00,349.81,321.37,14.47,0000 0000 0000 0000 000000
2014-03-20 02:27:44,0.06,2.91,0.00,23.57,28.82,31.64,6.01,32.46,1011.77,2033.10,2421.98,2559.95,2778.74,350.07,322.10,14.48,0000 0000 0000 0000 000000
2014-03-20 02:28:44,0.14,2.91,0.00,23.57,28.82,31.67,6.05,32.63,1011.89,2033.17,2421.68,2559.70,2778.35,349.82,321.90,14.48,0000 0000 0000 0000 000000
2014-03-20 02:29:44,0.26,2.92,0.00,23.57,28.82,31.64,5.97,32.79,1011.82,2033.15,2421.26,2559.28,2778.13,349.51,321.20,14.49,0000 0000 0000 0000 000000
2014-03-20 02:30:45,0.23,2.92,0.00,23.57,28.81,31.63,6.06,32.75,1011.87,2033.19,2420.98,2559.10,2778.03,350.36,322.31,14.49,0000 0000 0000 0000 000000
2014-03-20 02:31:45,0.11,2.92,0.00,23.57,28.80,31.57,5.82,32.67,1011.87,2033.13,2420.73,2559.03,2777.91,349.46,321.26,14.50,0000 0000 0000 0000 000000
2014-03-20 02:32:45,0.12,2.92,0.00,23.58,28.80,31.59,6.00,32.58,1012.15,2033.12,2420.35,2559.01,2777.52,350.29,322.44,14.51,0000 0000 0000 0000 000000
2014-03-20 02:33:45,0.14,2.92,0.00,23.59,28.80,31.65,6.01,32.71,1012.21,2033.12,2420.13,2559.00,2777.23,350.20,322.10,14.51,0000 0000 0000 0000 000000
2014-03-20 02:34:46,0.10,2.92,0.00,23.59,28.80,31.60,6.12,32.67,1012.22,2033.19,2420.05,2558.96,2777.09,350.44,322.33,14.52,0000 0000 0000 0000 000000
2014-03-20 02:35:46,0.11,2.92,0.00,23.59,28.80,31.62,6.12,32.50,1012.22,2033.24,2419.90,2558.71,2777.03,350.68,322.91,14.52,0000 0000 0000 0000 000000